Find Starlink 33601

NORAD ID: 62768 Int'l Des: 2025-015 Owner: SPXS Country: US Constellation: starlink operational
LEOCIRCULAR

Current View

Loading 3D Globe...

About Starlink 33601

Starlink 33601 (NORAD 62768) is a starlink constellation satellite (v2 mini) launched Jan 21, 2025 by SPXS of US. It operates in LEO, CIRCULAR orbit with a mass of 575.00 kg.

About Starlink 33601

Description loading...

Upcoming Passes

Passes for default location (London). Set your location on the main map for personalized predictions.

Altitude History

Loading altitude history...

Two-Line Element Set

1 62768U 25015L 26171.45835314 .00012039 00000-0 36682-3 0 9995
2 62768 53.1571 203.8188 0001168 85.9776 274.1360 15.34405092 80230
Epoch: Jun 20, 2026 • Age: 24 hours

Current Status

Altitude 464.3 km
Velocity 7.64 km/s
Sub-Earth Point 33.26°N, 159.29°E
Launch Date Jan 21, 2025
Age 1.4 years
Type internet

Technical Details

Classification Payload
Mass 575.00 kg
Dry Mass 530.00 kg
Total Mass 575.00 kg
Length 0.30 m
Diameter 4.10 m
Span 29.00 m
Shape Box + pan
Manufacturer SPXS
Bus Type Starlink V2MO
Phase Status In Orbit
Owner/State SPXS/US

Most Searched